STARLINK-32859, 62861

Orbit data source: Space-Track

STARLINK-32859, 62861 is a payload satellite owned by SpaceX/Seattle (US) in LEO that was launched on Sat, 01 Feb 2025 UTC via an FALCON 9 launch vehicle from the Air Force Western Test Range (AFWTR). Payload-class satellites include a variety of spacecraft equipped with specific instruments for various scientific and technological missions. These include communications satellites like Starlink; space stations such as the ISS; scientific satellites like the Hubble; Earth observation satellites from companies like Planet Labs, Umbra, and HawkEye 360; GPS; miniature CubeSats for education and research; and military/defense satellites.

Loading next visibility...
Identifier
62861, 2025-022H
Orbit
LEO
Country
Flag of USUS
Related business
Manufacturer
SpaceX/Seattle
Mission
Operational Commercial Communications
Bus & Motor
STARLINK V2M, Unknown motor
Mass
730 kg wet, ~700 kg dry
Launch date (UTC)
2025-02-01 (7 months ago)
Launch vehicle
FALCON 9
Launch site
Air Force Western Test Range (AFWTR)
Object type
Payload
Rocket body
Debris
Shape & HBR
Box + 2 Pan, 14.5 m
Radar Cross Section
33.884 m², Large (>1 m²)

Expand to show TLE details & history
Last TLE update: 11 hours ago

TLE from 11 hours ago
0 STARLINK-32859
1 62861U 25022H   25259.15568160  .00028151  00000-0  95782-3 0  9990
2 62861  53.1567 220.6272 0003215  90.3884 269.7485 15.30236628 35179
Epoch: 2025-09-16T03:44Z
TLE epoch observation values (Epoch: 2025-09-16T03:44:10.89Z)
Latitude
-0.00002°
Longitude
169.23177°
Altitude
476.015 km
Speed
7.629 km/s
True Right ascension
14h 42m 30s
True Declination
0° 00' 00"
Sunlit
Object was in daylight at epoch
Visualization orbit readout
Latitude
Unknown
Longitude
Unknown
Altitude
Unknown
Speed
Unknown
Apparent Right ascension
Unknown
Apparent Declination
Unknown
Sunlit
N/A
Visualization observer readout
Local Sidereal Time
07:11:32
Azimuth
Unknown
Elevation
Unknown
Doppler factor
Unknown
Orbital elements
Apogee altitude
477.566 km
Perigee altitude
473.159 km
Semi-major axis
6,853.5 km
Eccentricity
0.00032
Inclination
53.1567°
RAAN
220.6272°
Arg. of periapsis
90.3884°
True anomaly
269.71166°
Mean anomaly
269.7485°
Eccentric anomaly
269.73008°
Mean motion
3.82538 °/min
Orbital period
94.11 mins
BSTAR
0.00095782
Loading maneuver chart data...
Computing Atmospheric mass density...
Loading historical data...
Loading historical data...
Loading historical data...
Loading historical data...
Loading historical data...
Loading historical data...
Loading historical data...

Documentation

Showing up to 5 results
|